STARLINK-34807, 65028

Orbit data source: Space-Track

STARLINK-34807, 65028 is a payload satellite owned by SpaceX/Seattle (US) in LEO that was launched on Wed, 30 Jul 2025 UTC via an FALCON 9 launch vehicle from the Air Force Eastern Test Range (AFETR). Payload-class satellites include a variety of spacecraft equipped with specific instruments for various scientific and technological missions. These include communications satellites like Starlink; space stations such as the ISS; scientific satellites like the Hubble; Earth observation satellites from companies like Planet Labs, Umbra, and HawkEye 360; GPS; miniature CubeSats for education and research; and military/defense satellites.

Loading next visibility...
Identifier
65028, 2025-161P
Orbit
LEO
Country
Flag of USUS
Related business
Manufacturer
SpaceX/Seattle
Mission
Operational spacecraft
Bus & Motor
STARLINK V2MO, Unknown motor
Mass
575 kg wet, ~530 kg dry
Launch date (UTC)
2025-07-30 (1 month ago)
Launch vehicle
FALCON 9
Launch site
Air Force Eastern Test Range (AFETR)
Object type
Payload
Rocket body
Debris
Shape & HBR
Unknown
Radar Cross Section
Large (>1 m²)

Expand to show TLE details & history
Last TLE update: 1 day ago

TLE from 1 day ago
0 STARLINK-34807
1 65028U 25161P   25242.02131315  .00102423  00000-0  18252-2 0  9999
2 65028  53.1604 106.6775 0001234  78.9929 281.1219 15.49315137  5950
Epoch: 2025-08-30T00:30Z
TLE epoch observation values (Epoch: 2025-08-30T00:30:41.456Z)
Latitude
0.00001°
Longitude
120.54318°
Altitude
419.474 km
Speed
7.661 km/s
True Right ascension
07h 06m 42s
True Declination
0° 00' 00"
Sunlit
Object was in daylight at epoch
Visualization orbit readout
Latitude
Unknown
Longitude
Unknown
Altitude
Unknown
Speed
Unknown
Apparent Right ascension
Unknown
Apparent Declination
Unknown
Sunlit
N/A
Visualization observer readout
Local Sidereal Time
15:44:53
Azimuth
Unknown
Elevation
Unknown
Doppler factor
Unknown
Orbital elements
Apogee altitude
419.826 km
Perigee altitude
418.148 km
Semi-major axis
6,797.124 km
Eccentricity
0.00012
Inclination
53.1604°
RAAN
106.6775°
Arg. of periapsis
78.9929°
True anomaly
281.10802°
Mean anomaly
281.1219°
Eccentric anomaly
281.11496°
Mean motion
3.87307 °/min
Orbital period
92.95 mins
BSTAR
0.0018252
Loading maneuver chart data...
Computing Atmospheric mass density...
Loading historical data...
Loading historical data...
Loading historical data...
Loading historical data...
Loading historical data...
Loading historical data...
Loading historical data...

Documentation

Showing up to 5 results
|